When you browse on this site, cookies collect data to enhance your experience and personalize the content and advertising you see.
Visit our Privacy Policy to learn more. By continuing to use the site, you agree to this use of cookies and data.
  • Em Portugal
  • Lista de países
  • Para 7 dias
  • Temperatura da água
  • Mapas de satélite
  • Mapa do tempo
  • Widgets de tempo
  • user-avatar
    Iniciar Sessão

    Previsão horária em Gorlovka

    Hoje, 26 Maio, Domingo

    Tempo Temperatura Precipitação Vento Pressão Humidade
    00:00 +17°C° 2.4 mm 3 m/s 730 mmHg 88%
    01:00 +16°C° 1.3 mm 3 m/s 730 mmHg 89%
    02:00 +16°C° 1.3 mm 3 m/s 730 mmHg 90%
    03:00 +16°C° 1.3 mm 3 m/s 730 mmHg 91%
    04:00 +16°C° 0.2 mm 3 m/s 730 mmHg 90%
    05:00 +15°C° 0.2 mm 4 m/s 730 mmHg 90%
    06:00 +15°C° 0.2 mm 4 m/s 730 mmHg 90%
    07:00 +17°C° 0.3 mm 4 m/s 730 mmHg 86%
    08:00 +18°C° 0.3 mm 4 m/s 731 mmHg 82%
    09:00 +19°C° 0.3 mm 4 m/s 731 mmHg 78%
    10:00 +19°C° 0.8 mm 4 m/s 731 mmHg 74%
    11:00 +20°C° 0.8 mm 4 m/s 731 mmHg 70%
    12:00 +21°C° 0.8 mm 3 m/s 732 mmHg 67%
    13:00 +21°C° 0.4 mm 3 m/s 732 mmHg 64%
    14:00 +22°C° 0.4 mm 3 m/s 732 mmHg 62%
    15:00 +24°C° 0.4 mm 3 m/s 732 mmHg 60%
    16:00 +22°C° 0.5 mm 3 m/s 732 mmHg 62%
    17:00 +22°C° 0.5 mm 4 m/s 732 mmHg 64%
    18:00 +22°C° 0.5 mm 4 m/s 732 mmHg 67%
    19:00 +21°C° 0.4 mm 4 m/s 733 mmHg 71%
    20:00 +20°C° 0.4 mm 4 m/s 733 mmHg 76%
    21:00 +18°C° 0.4 mm 4 m/s 733 mmHg 81%
    22:00 +18°C° 0.4 mm 4 m/s 734 mmHg 83%
    23:00 +17°C° 0.4 mm 4 m/s 734 mmHg 85%

    Amanhã, 27 Maio, Segunda-feira

    Tempo Temperatura Precipitação Vento Pressão Humidade
    00:00 +17°C° 0.4 mm 4 m/s 734 mmHg 86%
    01:00 +16°C° 0 mm 3 m/s 735 mmHg 88%
    02:00 +16°C° 0 mm 3 m/s 735 mmHg 89%
    03:00 +14°C° 0 mm 3 m/s 735 mmHg 90%
    04:00 +14°C° 0 mm 3 m/s 736 mmHg 90%
    05:00 +14°C° 0 mm 3 m/s 736 mmHg 89%
    06:00 +16°C° 0 mm 3 m/s 737 mmHg 89%
    07:00 +17°C° 0 mm 3 m/s 737 mmHg 81%
    08:00 +19°C° 0 mm 3 m/s 738 mmHg 73%
    09:00 +20°C° 0 mm 4 m/s 738 mmHg 65%
    10:00 +21°C° 0 mm 4 m/s 739 mmHg 60%
    11:00 +22°C° 0 mm 4 m/s 739 mmHg 56%
    12:00 +23°C° 0 mm 5 m/s 739 mmHg 51%
    13:00 +23°C° 0 mm 5 m/s 739 mmHg 50%
    14:00 +23°C° 0 mm 5 m/s 740 mmHg 49%
    15:00 +25°C° 0 mm 4 m/s 740 mmHg 48%
    16:00 +25°C° 0 mm 4 m/s 740 mmHg 50%
    17:00 +24°C° 0 mm 3 m/s 740 mmHg 53%
    18:00 +24°C° 0 mm 3 m/s 739 mmHg 55%
    19:00 +23°C° 0 mm 2 m/s 740 mmHg 58%
    20:00 +21°C° 0 mm 1 m/s 740 mmHg 61%
    21:00 +17°C° 0 mm 0 m/s 740 mmHg 65%
    22:00 +17°C° 0 mm 0 m/s 740 mmHg 66%
    23:00 +19°C° 0 mm 1 m/s 741 mmHg 67%

    Depois de amanhã, 28 Maio, Terça-feira

    Tempo Temperatura Precipitação Vento Pressão Humidade
    00:00 +18°C° 0 mm 1 m/s 741 mmHg 68%
    01:00 +18°C° 0 mm 1 m/s 741 mmHg 69%
    02:00 +18°C° 0 mm 1 m/s 741 mmHg 70%
    03:00 +16°C° 0 mm 1 m/s 741 mmHg 71%
    04:00 +18°C° 0 mm 1 m/s 741 mmHg 71%
    05:00 +18°C° 0 mm 1 m/s 741 mmHg 72%
    06:00 +18°C° 0 mm 1 m/s 741 mmHg 73%
    07:00 +20°C° 0 mm 1 m/s 741 mmHg 67%
    08:00 +22°C° 0 mm 1 m/s 742 mmHg 61%
    09:00 +24°C° 0 mm 2 m/s 742 mmHg 56%
    10:00 +25°C° 0 mm 1 m/s 742 mmHg 52%
    11:00 +26°C° 0 mm 1 m/s 742 mmHg 49%
    12:00 +27°C° 0 mm 1 m/s 742 mmHg 45%
    13:00 +27°C° 0 mm 1 m/s 742 mmHg 44%
    14:00 +28°C° 0 mm 1 m/s 742 mmHg 43%
    15:00 +28°C° 0 mm 1 m/s 741 mmHg 42%
    16:00 +27°C° 0 mm 2 m/s 741 mmHg 46%
    17:00 +27°C° 0 mm 2 m/s 741 mmHg 49%
    18:00 +27°C° 0 mm 2 m/s 741 mmHg 53%
    19:00 +25°C° 0 mm 2 m/s 741 mmHg 57%
    20:00 +23°C° 0 mm 2 m/s 741 mmHg 61%
    21:00 +21°C° 0 mm 2 m/s 741 mmHg 65%
    22:00 +20°C° 0 mm 2 m/s 741 mmHg 66%
    23:00 +20°C° 0 mm 2 m/s 741 mmHg 68%

    29 Maio, Quarta-feira

    Tempo Temperatura Precipitação Vento Pressão Humidade
    00:00 +19°C° 0 mm 2 m/s 741 mmHg 70%
    01:00 +19°C° 0 mm 2 m/s 741 mmHg 71%
    02:00 +18°C° 0 mm 2 m/s 740 mmHg 73%
    03:00 +18°C° 0 mm 2 m/s 740 mmHg 75%
    04:00 +18°C° 0 mm 2 m/s 740 mmHg 75%
    05:00 +18°C° 0 mm 2 m/s 740 mmHg 76%
    06:00 +18°C° 0 mm 2 m/s 740 mmHg 77%
    07:00 +20°C° 0 mm 3 m/s 740 mmHg 69%
    08:00 +21°C° 0 mm 4 m/s 741 mmHg 62%
    09:00 +23°C° 0 mm 5 m/s 741 mmHg 55%
    10:00 +25°C° 0 mm 5 m/s 741 mmHg 52%
    11:00 +26°C° 0 mm 5 m/s 740 mmHg 50%
    12:00 +27°C° 0 mm 5 m/s 740 mmHg 48%
    13:00 +27°C° 0 mm 5 m/s 740 mmHg 47%
    14:00 +28°C° 0 mm 5 m/s 740 mmHg 47%
    15:00 +28°C° 0 mm 4 m/s 740 mmHg 46%
    16:00 +28°C° 0 mm 4 m/s 740 mmHg 49%
    17:00 +28°C° 0 mm 3 m/s 740 mmHg 52%
    18:00 +27°C° 0 mm 3 m/s 739 mmHg 55%
    19:00 +26°C° 0 mm 3 m/s 739 mmHg 57%
    20:00 +24°C° 0 mm 3 m/s 739 mmHg 60%
    21:00 +22°C° 0 mm 3 m/s 739 mmHg 62%
    22:00 +21°C° 0 mm 3 m/s 739 mmHg 63%
    23:00 +20°C° 0 mm 3 m/s 739 mmHg 65%

    30 Maio, Quinta-feira

    Tempo Temperatura Precipitação Vento Pressão Humidade
    00:00 +20°C° 0 mm 3 m/s 739 mmHg 66%
    01:00 +19°C° 0 mm 3 m/s 739 mmHg 66%
    02:00 +19°C° 0 mm 3 m/s 739 mmHg 67%
    03:00 +18°C° 0 mm 3 m/s 739 mmHg 68%
    04:00 +18°C° 0 mm 3 m/s 739 mmHg 69%
    05:00 +18°C° 0 mm 3 m/s 739 mmHg 69%
    06:00 +18°C° 0 mm 3 m/s 739 mmHg 70%
    07:00 +20°C° 0 mm 3 m/s 739 mmHg 66%
    08:00 +22°C° 0 mm 4 m/s 739 mmHg 61%
    09:00 +25°C° 0 mm 4 m/s 740 mmHg 57%
    10:00 +26°C° 0 mm 4 m/s 740 mmHg 52%
    11:00 +28°C° 0 mm 4 m/s 739 mmHg 48%
    12:00 +29°C° 0 mm 5 m/s 739 mmHg 44%
    13:00 +29°C° 0 mm 4 m/s 739 mmHg 43%
    14:00 +29°C° 0 mm 4 m/s 739 mmHg 43%
    15:00 +30°C° 0 mm 4 m/s 739 mmHg 43%
    16:00 +29°C° 0 mm 4 m/s 738 mmHg 46%
    17:00 +29°C° 0 mm 3 m/s 738 mmHg 50%
    18:00 +29°C° 0 mm 3 m/s 738 mmHg 53%
    19:00 +27°C° 0 mm 3 m/s 738 mmHg 56%
    20:00 +25°C° 0 mm 2 m/s 738 mmHg 58%
    21:00 +24°C° 0 mm 2 m/s 738 mmHg 61%
    22:00 +23°C° 0 mm 2 m/s 738 mmHg 63%
    23:00 +21°C° 0 mm 2 m/s 738 mmHg 64%

    31 Maio, Sexta-feira

    Tempo Temperatura Precipitação Vento Pressão Humidade
    00:00 +20°C° 0 mm 2 m/s 738 mmHg 65%
    01:00 +20°C° 0 mm 2 m/s 738 mmHg 66%
    02:00 +20°C° 0 mm 2 m/s 738 mmHg 67%
    03:00 +19°C° 0 mm 2 m/s 738 mmHg 68%
    04:00 +20°C° 0 mm 2 m/s 738 mmHg 69%
    05:00 +20°C° 0 mm 2 m/s 738 mmHg 70%
    06:00 +20°C° 0 mm 2 m/s 738 mmHg 71%
    07:00 +22°C° 0 mm 3 m/s 738 mmHg 66%
    08:00 +25°C° 0 mm 3 m/s 738 mmHg 62%
    09:00 +27°C° 0 mm 3 m/s 738 mmHg 57%
    10:00 +28°C° 0 mm 3 m/s 738 mmHg 52%
    11:00 +30°C° 0 mm 4 m/s 738 mmHg 47%
    12:00 +32°C° 0 mm 4 m/s 738 mmHg 42%
    13:00 +32°C° 0 mm 4 m/s 738 mmHg 42%
    14:00 +31°C° 0 mm 3 m/s 738 mmHg 42%
    15:00 +31°C° 0 mm 3 m/s 738 mmHg 42%
    16:00 +30°C° 0 mm 3 m/s 737 mmHg 45%
    17:00 +30°C° 0 mm 2 m/s 737 mmHg 48%
    18:00 +29°C° 0 mm 2 m/s 737 mmHg 51%
    19:00 +28°C° 0 mm 2 m/s 737 mmHg 52%
    20:00 +27°C° 0 mm 2 m/s 737 mmHg 53%
    21:00 +26°C° 0 mm 2 m/s 738 mmHg 54%
    22:00 +25°C° 0 mm 2 m/s 738 mmHg 54%
    23:00 +25°C° 0 mm 2 m/s 737 mmHg 54%
    Mostrar mais